Flag for Hungary Weather past 2 weeks in Pécs, Hungary

Now
28 °F

Passing clouds.


Feels Like: 28 °F
Forecast: 25 / 37 °F
Wind: No wind

Location: Pecs / Pogany

Current Time: Jan 27, 2015 at 4:33:14 AM

Latest Report: Jan 27, 2015 at 3:00 AM


Visibility: 16 mi

Pressure: 30.14 "Hg

Humidity: 96%

Dew point: 27 °F

Location of PécsLocation

Historic Weather in Pécs — Graph

°F

Pécs temperature yesterday

Maximum temperature yesterday: 36 °F (at 1:00 PM)
Minimum temperature yesterday: 31 °F (at 11:00 PM)
Average temperature yesterday: 33 °F

Past Weeks' High & Low Weather Summary

 TemperatureHumidityPressure
High55 °F (Jan 16, 2:00 PM)100% (Jan 19, 1:00 AM)30.37 "Hg (Jan 19, 1:00 AM)
Low28 °F (Jan 27, 3:00 AM)46% (Jan 13, 11:00 AM)29.82 "Hg (Jan 23, 2:00 PM)
Average40 °F86%30.05 "Hg
* Reported Jan 12 3:00 AM — Jan 27 3:00 AM, Pécs, Weather by CustomWeather, © 2014

Note: Actual official high and low records may vary slightly from our data, if they occured in-between our weather recording intervals... More about our weather records

Advertising

Pécs weather history for previous 24 hours

 ConditionsComfort  
Time TempWeatherWind HumidityBarometerVisibility
3:00 AM
Jan 27
28 °FPassing clouds.No wind96%30.14 "Hg16 mi
2:00 AM29 °FPassing clouds.1 mph87%30.15 "Hg16 mi
1:00 AM30 °FPassing clouds.No wind88%30.17 "Hg16 mi
12:00 AM31 °FOvercast.No wind87%30.19 "Hg12 mi
11:00 PM
Jan 26
31 °FOvercast.No wind83%30.19 "Hg12 mi
9:00 PM32 °FPassing clouds.1 mph78%30.23 "Hg16 mi
8:00 PM33 °FPassing clouds.No wind73%30.24 "Hg16 mi
7:00 PM33 °FOvercast.No wind77%30.24 "Hg16 mi
6:00 PM34 °FOvercast.1 mph73%30.25 "Hg19 mi
5:00 PM35 °FOvercast.2 mph72%30.25 "Hg19 mi
4:00 PM35 °FOvercast.2 mph68%30.25 "Hg19 mi
3:00 PM36 °FOvercast.2 mph69%30.25 "Hg19 mi
2:00 PM36 °FOvercast.5 mph71%30.25 "Hg19 mi
1:00 PM36 °FOvercast.6 mph74%30.27 "Hg19 mi
12:00 PM35 °FOvercast.6 mph74%30.28 "Hg25 mi
11:00 AM34 °FOvercast.5 mph79%30.30 "Hg25 mi
10:00 AM33 °FOvercast.5 mph81%30.29 "Hg19 mi
9:00 AM33 °FOvercast.3 mph84%30.29 "Hg19 mi
8:00 AM32 °FLight snow. Overcast.3 mph86%30.28 "Hg8 mi
7:00 AM32 °FLight snow. Overcast.5 mph86%30.27 "Hg5 mi
6:00 AM32 °FLight snow. Overcast.6 mph91%30.25 "Hg4 mi
5:00 AM32 °FLight snow. Overcast.6 mph92%30.24 "Hg4 mi
4:00 AM32 °FLight snow. Overcast.6 mph95%30.23 "Hg4 mi
Weather by CustomWeather, © 2014

See weather overviewHow to use our weather pages